TimeMST,TemperatureF,Dew PointF,Humidity,Sea Level PressureIn,VisibilityMPH,Wind Direction,Wind SpeedMPH,Gust SpeedMPH,PrecipitationIn,Events,Conditions,WindDirDegrees,DateUTC
12:37 AM,15.8,12.2,86,29.59,0.2,NE,9.2,-,0.05,Fog-Snow,Heavy Snow,50,2011-11-19 07:37:00
12:44 AM,15.8,12.2,86,29.58,0.5,NE,11.5,-,0.05,Fog-Snow,Snow,50,2011-11-19 07:44:00
12:53 AM,15.1,12.0,88,29.71,0.5,NE,8.1,17.3,0.06,Fog-Snow,Snow,50,2011-11-19 07:53:00
1:46 AM,15.8,12.2,86,29.58,1.0,NNE,8.1,-,0.06,Snow,Light Snow,30,2011-11-19 08:46:00
1:53 AM,15.1,12.9,91,29.73,1.0,NNE,5.8,-,0.06,Snow,Light Snow,30,2011-11-19 08:53:00
2:02 AM,15.8,12.2,86,29.58,0.8,ENE,8.1,-,0.01,Snow,Light Snow,60,2011-11-19 09:02:00
2:11 AM,15.8,12.2,86,29.59,1.0,ENE,4.6,-,0.01,Snow,Light Snow,60,2011-11-19 09:11:00
2:28 AM,15.8,12.2,86,29.58,0.8,NE,6.9,-,0.02,Snow,Light Snow,50,2011-11-19 09:28:00
2:40 AM,15.8,12.2,86,29.59,0.5,NE,5.8,-,0.04,Fog-Snow,Snow,40,2011-11-19 09:40:00
2:53 AM,15.1,12.9,91,29.73,0.5,NE,6.9,-,0.05,Fog-Snow,Snow,50,2011-11-19 09:53:00
3:28 AM,15.8,12.2,86,29.59,1.0,ENE,9.2,-,0.04,Snow,Light Snow,60,2011-11-19 10:28:00
3:42 AM,15.8,12.2,86,29.60,0.8,NE,6.9,-,0.05,Snow,Light Snow,50,2011-11-19 10:42:00
3:53 AM,15.1,12.0,88,29.75,0.8,NE,8.1,-,0.06,Snow,Light Snow,40,2011-11-19 10:53:00
4:15 AM,15.8,12.2,86,29.60,1.0,ENE,5.8,-,0.01,Snow,Light Snow,60,2011-11-19 11:15:00
4:53 AM,15.1,12.0,88,29.76,2.5,ENE,6.9,-,0.02,Snow,Light Snow,60,2011-11-19 11:53:00
5:13 AM,15.8,12.2,86,29.61,1.5,NE,5.8,-,0.00,Snow,Light Snow,40,2011-11-19 12:13:00
5:53 AM,14.0,10.9,88,29.80,1.2,ENE,5.8,-,0.01,Snow,Light Snow,70,2011-11-19 12:53:00
6:00 AM,14.0,10.4,86,29.64,1.0,East,5.8,-,0.00,Snow,Light Snow,80,2011-11-19 13:00:00
6:29 AM,12.2,8.6,85,29.65,0.8,NE,8.1,-,0.01,Snow,Light Snow,40,2011-11-19 13:29:00
6:41 AM,12.2,8.6,85,29.64,1.0,ENE,5.8,-,0.02,Snow,Light Snow,60,2011-11-19 13:41:00
6:53 AM,12.0,9.0,88,29.83,1.0,ENE,3.5,-,0.02,Snow,Light Snow,70,2011-11-19 13:53:00
7:08 AM,12.2,8.6,85,29.65,0.8,East,3.5,-,0.01,Snow,Light Snow,80,2011-11-19 14:08:00
7:43 AM,10.4,6.8,85,29.68,1.0,NE,3.5,-,0.01,Snow,Light Snow,50,2011-11-19 14:43:00
7:53 AM,10.9,8.1,88,29.87,1.0,Calm,Calm,-,0.02,Snow,Light Snow,0,2011-11-19 14:53:00
8:12 AM,10.4,8.6,92,29.69,0.8,Calm,Calm,-,0.00,Snow,Light Snow,0,2011-11-19 15:12:00
8:32 AM,12.2,8.6,85,29.69,1.0,Calm,Calm,-,0.00,Snow,Light Snow,0,2011-11-19 15:32:00
8:53 AM,12.0,8.1,84,29.88,1.2,ENE,5.8,-,0.01,Snow,Light Snow,60,2011-11-19 15:53:00
9:10 AM,12.2,8.6,85,29.69,2.0,ENE,6.9,-,0.00,Snow,Light Snow,70,2011-11-19 16:10:00
9:18 AM,12.2,8.6,85,29.69,1.5,ENE,5.8,-,0.00,Snow,Light Snow,70,2011-11-19 16:18:00
9:25 AM,12.2,8.6,85,29.69,1.5,ENE,6.9,-,0.00,Snow,Light Snow,60,2011-11-19 16:25:00
9:53 AM,12.9,9.0,84,29.89,1.5,ENE,3.5,-,0.00,Snow,Light Snow,60,2011-11-19 16:53:00
10:24 AM,12.2,8.6,85,29.70,0.8,ENE,4.6,-,0.00,Snow,Light Snow,70,2011-11-19 17:24:00
10:40 AM,12.2,8.6,85,29.70,1.5,East,5.8,-,0.01,Snow,Light Snow,100,2011-11-19 17:40:00
10:53 AM,12.0,8.1,84,29.90,2.0,East,3.5,-,0.01,Snow,Light Snow,80,2011-11-19 17:53:00
11:14 AM,12.2,8.6,85,29.70,1.2,ESE,3.5,-,0.00,Snow,Light Snow,110,2011-11-19 18:14:00
11:26 AM,12.2,8.6,85,29.70,0.8,East,3.5,-,0.01,Snow,Light Snow,100,2011-11-19 18:26:00
11:53 AM,14.0,9.0,80,29.90,0.5,Calm,Calm,-,0.12,Snow,Snow,0,2011-11-19 18:53:00
12:44 PM,15.8,12.2,86,29.71,1.0,WSW,6.9,-,0.02,Snow,Light Snow,240,2011-11-19 19:44:00
12:53 PM,16.0,12.0,84,29.91,1.0,WSW,4.6,-,0.02,Snow,Light Snow,240,2011-11-19 19:53:00
1:19 PM,15.8,10.4,79,29.73,3.0,SW,5.8,-,0.00,Snow,Light Snow,220,2011-11-19 20:19:00
1:26 PM,15.8,10.4,79,29.73,2.0,SSW,4.6,-,0.00,Snow,Light Snow,200,2011-11-19 20:26:00
1:43 PM,15.8,10.4,79,29.74,1.2,Variable,4.6,-,0.00,Snow,Light Snow,0,2011-11-19 20:43:00
1:50 PM,15.8,12.2,86,29.74,1.0,SW,4.6,-,0.00,Snow,Light Snow,220,2011-11-19 20:50:00
1:53 PM,15.1,10.9,84,29.94,1.0,Variable,6.9,-,0.00,Snow,Light Snow,0,2011-11-19 20:53:00
2:28 PM,14.0,10.4,86,29.77,2.5,West,8.1,-,0.00,Snow,Light Snow,260,2011-11-19 21:28:00
2:31 PM,14.0,8.6,79,29.77,4.0,West,8.1,-,0.00,Snow,Light Snow,260,2011-11-19 21:31:00
2:53 PM,12.9,9.0,84,29.99,10.0,SW,3.5,-,0.00,,Overcast,220,2011-11-19 21:53:00
3:31 PM,12.2,8.6,85,29.81,10.0,SW,4.6,-,N/A,,Overcast,220,2011-11-19 22:31:00
3:53 PM,10.9,7.0,84,30.05,5.0,SW,6.9,-,0.00,Snow,Light Snow,220,2011-11-19 22:53:00
4:23 PM,8.6,6.8,92,29.84,3.0,WSW,5.8,-,0.00,Snow,Light Snow,240,2011-11-19 23:23:00
4:53 PM,8.1,5.0,87,30.08,6.0,SW,6.9,-,0.00,Snow,Light Snow,230,2011-11-19 23:53:00
5:10 PM,8.6,5.0,85,29.85,10.0,WSW,8.1,-,0.00,,Scattered Clouds,250,2011-11-20 00:10:00
5:53 PM,6.1,3.0,87,30.10,10.0,WSW,3.5,-,0.00,,Clear,240,2011-11-20 00:53:00
6:53 PM,3.9,1.0,88,30.13,10.0,SSW,6.9,-,N/A,,Clear,200,2011-11-20 01:53:00
7:17 PM,3.2,1.4,92,29.88,10.0,South,6.9,-,N/A,,Partly Cloudy,190,2011-11-20 02:17:00
7:35 PM,3.2,1.4,92,29.89,3.0,SSW,6.9,-,0.00,Snow,Light Snow,200,2011-11-20 02:35:00
7:43 PM,3.2,-0.4,85,29.89,2.0,SSW,4.6,-,0.00,Snow,Light Snow,200,2011-11-20 02:43:00
7:53 PM,3.0,-0.0,87,30.17,2.5,SSW,4.6,-,0.00,Snow,Light Snow,210,2011-11-20 02:53:00
8:00 PM,3.2,-0.4,85,29.89,5.0,WSW,4.6,-,0.00,Snow,Light Snow,250,2011-11-20 03:00:00
8:13 PM,1.4,-0.4,92,29.90,10.0,SW,3.5,-,0.00,,Scattered Clouds,220,2011-11-20 03:13:00
8:53 PM,1.9,-0.9,88,30.18,10.0,WNW,4.6,-,0.00,,Clear,290,2011-11-20 03:53:00
9:53 PM,-0.9,-5.1,83,30.19,10.0,SW,4.6,-,N/A,,Clear,230,2011-11-20 04:53:00
10:53 PM,1.9,-2.0,83,30.19,10.0,West,6.9,-,N/A,,Clear,270,2011-11-20 05:53:00
11:53 PM,-0.9,-6.0,79,30.19,10.0,West,3.5,-,N/A,,Clear,260,2011-11-20 06:53:00